Aeroporto :
LOGIN :

Iscrizione | Disclaimer

   EN    FR    IT 

 










Sommario :    VFR   VFR Marginale   IFR   IFR Intensivo   IFR Molto Intensivo
Visibilità : 
Base nubi : 
>= 8 km
>= 3000ft
5 / 8 km
1000 / 3000 ft
1500m / 5 km
500 / 1000 ft
800 / 1500m
200 / 500 ft
< 800m
< 200 ft
Simboli :   Temporali  Nebbia  Neve Forte  Precipitazioni Forti  Vento > 20 kt
SIGMETs :   Varie  Temporali  Ghiacco  Turbolenza  Onda orograficha  Ceneri Vulcaniche







- Altitudine del aeroporto : 142 ft
- Codice IATA : FLR


LIRQ - Firenze Amerigo Vespucci

ULTIMO METAR :
  • 241050Z 06008KT 020V130 CAVOK 33/17 Q1017

METARs OBSOLETI :
  • 241020Z 09009KT 050V110 CAVOK 32/16 Q1017
  • 240950Z 07009KT 010V110 CAVOK 31/16 Q1017
  • 240920Z 06006KT 020V110 CAVOK 31/15 Q1017
  • 240850Z VRB02KT CAVOK 30/17 Q1017
  • 240820Z VRB02KT CAVOK 28/17 Q1018

TAF TAF LIRQ
Valido dal 24 a 06 ore il 25 a 06 ore UTC


240500Z 2406/2506 VRB05KT 9999 FEW030
Nessun NOTAM noto per questo aeroporto.



MetMap, La meteo Aeronautica in un colpo d'occhio ! - Copyright ORBIFLY Dicembre 2007 - Disclaimer

ORBIFLY MET'MAP TEAM :

Programmazione e sviluppo : Alexandra Zaïnal
Concezione e sviluppo : Baudouin d'Aumeries
Co-Programmazione e sviluppo : Marc-Olivier Méhu
Supporto tecnico e logistico : Manuel Goepfert
Aiuto per la traduzione : Arnaldo La Scala

Contatto : metmap@orbifly.com




FONTI E CREDITI :

   NOAA